Content
SEND FEEDBACK

Daily
Averages
Monthly
Summary
United States of America

CHICAGO, ILLINOIS


Home > North America > United States > Illinois
Elevation: 674 feet     Latitude: 41 59N     Longitude: 087 54W

WEATHER
 
SELECT A DAY
Number of Records: 199,841;   Date Range: 7/8/95 - 12/26/14
 
SHARE

PRINT THIS DATA

[ ← Previous Day ]
WEATHER ALMANAC - NOVEMBER 8, 2013
[ Next Day → ]
[ °C ]   °F
Weather ElementAverageHighLow
Temperature41.1 °F48 °F (1:52 pm)27 °F (5:52 am)
Dewpoint28.7 °F30 °F (12:52 pm)23 °F (5:52 am)
Humidity63.3 %88 % (4:52 am)48 % (1:52 pm)
Barometer30.21 in30.35 in (7:52 am)29.96 in (11:52 pm)
Wind Speed8.5 mph20.7 mph (9:52 pm)
Wind Gust27.6 mph (11:52 pm)
Weather ElementAverage
Visibility8.7 mi
Wind DirectionSSE (167 °)

Weather ElementTotal
Precipitation---
Heating Degree Days27.5 (Base 65)
Averaged from 23 records on November 8, 2013
WEATHER CONDITIONS BREAKOUT
WIND DIRECTION BREAKOUT
WEATHER BY HOUR - NOVEMBER 8, 2013
[ °C ]   °F
Local TimeTemperatureDewpointHumidityBarometerVisibilityWind DirectionWind SpeedGust SpeedPrecipitationEventsConditions
1:52 AM33.1 °F28.0 °F82 %30.28 in10.0 miWest (280°)4.6 mphClear
2:52 AM32.0 °F28.0 °F85 %30.29 in9.0 miWest (270°)4.6 mphClear
3:52 AM30.9 °F27.0 °F85 %30.30 in8.0 miNNW (330°)3.5 mphClear
4:52 AM30.0 °F27.0 °F88 %30.31 in7.0 miCalmClear
5:52 AM27.0 °F23.0 °F85 %30.32 in7.0 miSSW (200°)3.5 mphClear
6:52 AM28.0 °F25.0 °F88 %30.34 in5.0 miCalmClear
7:52 AM33.1 °F28.0 °F82 %30.35 in5.0 miCalmHaze
8:52 AM37.0 °F28.9 °F73 %30.35 in6.0 miCalmHaze
9:52 AM41.0 °F28.9 °F62 %30.33 in8.0 miSouth (190°)5.8 mphClear
10:52 AM43.0 °F28.9 °F58 %30.32 in8.0 miSouth (180°)9.2 mphClear
11:52 AM46.0 °F28.9 °F51 %30.28 in9.0 miSouth (190°)6.9 mphClear
12:52 PM46.9 °F30.0 °F52 %30.25 in9.0 miSouth (180°)6.9 mphClear
1:52 PM48.0 °F28.9 °F48 %30.23 in10.0 miSW (220°)8.1 mphClear
2:52 PM48.0 °F30.0 °F50 %30.20 in10.0 miSouth (190°)10.4 mphClear
3:52 PM48.0 °F28.9 °F48 %30.19 in10.0 miSouth (190°)9.2 mphMostly Cloudy
4:52 PM46.0 °F30.0 °F54 %30.15 in10.0 miSSE (160°)9.2 mphPartly Cloudy
5:52 PM46.0 °F30.0 °F54 %30.14 in10.0 miSouth (170°)10.4 mphClear
6:52 PM46.0 °F30.0 °F54 %30.10 in10.0 miSSE (160°)12.7 mphClear
7:52 PM46.9 °F30.0 °F52 %30.09 in10.0 miSouth (190°)13.8 mph21.9 mphClear
8:52 PM46.9 °F30.0 °F52 %30.08 in10.0 miSouth (180°)18.4 mphOvercast
9:52 PM46.9 °F30.0 °F52 %30.06 in10.0 miSouth (180°)20.7 mph26.5 mphMostly Cloudy
10:52 PM46.9 °F30.0 °F52 %30.00 in10.0 miSouth (190°)16.1 mphScattered Clouds
11:52 PM48.0 °F30.0 °F50 %29.96 in10.0 miSouth (190°)20.7 mph27.6 mphScattered Clouds
Hourly data recorded from KPWK, located miles away from Chicago, Illinois







STORIES FROM OUR PARTNERS